PIMOHWEATHER Station Historical Data
Daily Summary for February 28, 2020 Units:  Metric    English   Both
Daily Weekly Monthly Yearly
  High: Low: Average:
Temperature: 34.0 °C 25.0 °C 28.2 °C
Dew Point: 23.0 °C 20.0 °C 21.3 °C
Humidity: 79% 51% 67%
Wind Speed: 33km/h 0km/h 8km/h
Wind Gust: 36km/h - -
Wind- - SE
Pressure: 1012.9 hPa 1008.8 hPa -
Precipitation: 0.00 mm    
 
 
Tabular Data for February 28, 2020
Time Temperature Dew Point Pressure Wind Wind Speed Wind Gust Humidity Rainfall Rate (Hourly) solar
00:04 26.0 °C 20.0 °C 1012.5 hPa SE 7 km/h 8 km/h 70% 0.00 mm 0.00 W/m2
00:09 26.0 °C 20.0 °C 1012.2 hPa SSE 5 km/h 8 km/h 70% 0.00 mm 0.00 W/m2
00:14 26.0 °C 20.0 °C 1012.2 hPa SSE 3 km/h 4 km/h 70% 0.00 mm 0.00 W/m2
00:19 26.0 °C 20.0 °C 1012.2 hPa Calm     70% 0.00 mm 0.00 W/m2
00:24 26.0 °C 20.0 °C 1012.2 hPa Calm     70% 0.00 mm 0.00 W/m2
00:29 26.0 °C 20.0 °C 1012.2 hPa Calm     69% 0.00 mm 0.00 W/m2
00:34 26.0 °C 20.0 °C 1012.2 hPa Calm     70% 0.00 mm 0.00 W/m2
00:39 26.0 °C 20.0 °C 1011.9 hPa Calm     70% 0.00 mm 0.00 W/m2
00:44 26.0 °C 20.0 °C 1011.9 hPa Calm     70% 0.00 mm 0.00 W/m2
00:49 26.0 °C 20.0 °C 1011.9 hPa Calm     70% 0.00 mm 0.00 W/m2
00:54 26.0 °C 20.0 °C 1011.9 hPa Calm     70% 0.00 mm 0.00 W/m2
00:59 26.0 °C 20.0 °C 1011.9 hPa Calm     71% 0.00 mm 0.00 W/m2
01:04 26.0 °C 20.0 °C 1011.9 hPa Calm     70% 0.00 mm 0.00 W/m2
01:09 26.0 °C 20.0 °C 1011.9 hPa NW 6 km/h 8 km/h 71% 0.00 mm 0.00 W/m2
01:14 26.0 °C 20.0 °C 1011.5 hPa NW 1 km/h 4 km/h 71% 0.00 mm 0.00 W/m2
01:19 26.0 °C 20.0 °C 1011.5 hPa Calm     71% 0.00 mm 0.00 W/m2
01:24 26.0 °C 20.0 °C 1011.5 hPa Calm     72% 0.00 mm 0.00 W/m2
01:29 26.0 °C 20.0 °C 1011.5 hPa Calm     72% 0.00 mm 0.00 W/m2
01:34 26.0 °C 20.0 °C 1011.5 hPa Calm     72% 0.00 mm 0.00 W/m2
01:39 26.0 °C 20.0 °C 1011.5 hPa Calm     72% 0.00 mm 0.00 W/m2
01:44 26.0 °C 20.0 °C 1011.2 hPa Calm     72% 0.00 mm 0.00 W/m2
01:49 26.0 °C 20.0 °C 1011.2 hPa Calm     71% 0.00 mm 0.00 W/m2
01:54 26.0 °C 20.0 °C 1011.2 hPa Calm     72% 0.00 mm 0.00 W/m2
01:59 26.0 °C 20.0 °C 1011.2 hPa Calm     72% 0.00 mm 0.00 W/m2
02:04 25.0 °C 20.0 °C 1011.2 hPa Calm     73% 0.00 mm 0.00 W/m2
02:09 25.0 °C 20.0 °C 1011.2 hPa West 1 km/h 4 km/h 72% 0.00 mm 0.00 W/m2
02:14 25.0 °C 20.0 °C 1011.2 hPa NW 1 km/h 4 km/h 73% 0.00 mm 0.00 W/m2
02:19 26.0 °C 20.0 °C 1011.2 hPa Calm     73% 0.00 mm 0.00 W/m2
02:24 26.0 °C 20.0 °C 1011.2 hPa Calm     73% 0.00 mm 0.00 W/m2
02:29 25.0 °C 20.0 °C 1010.8 hPa Calm     74% 0.00 mm 0.00 W/m2
02:34 25.0 °C 20.0 °C 1011.2 hPa Calm     74% 0.00 mm 0.00 W/m2
02:39 25.0 °C 20.0 °C 1011.2 hPa Calm     74% 0.00 mm 0.00 W/m2
02:44 25.0 °C 21.0 °C 1011.2 hPa Calm     75% 0.00 mm 0.00 W/m2
02:49 25.0 °C 21.0 °C 1010.8 hPa Calm     75% 0.00 mm 0.00 W/m2
02:54 25.0 °C 21.0 °C 1010.8 hPa WSW 1 km/h 4 km/h 75% 0.00 mm 0.00 W/m2
02:59 25.0 °C 21.0 °C 1010.8 hPa NNW 3 km/h 4 km/h 76% 0.00 mm 0.00 W/m2
03:04 25.0 °C 21.0 °C 1010.8 hPa WNW 1 km/h 4 km/h 76% 0.00 mm 0.00 W/m2
03:09 25.0 °C 21.0 °C 1010.8 hPa Calm     76% 0.00 mm 0.00 W/m2
03:14 25.0 °C 21.0 °C 1010.5 hPa Calm     77% 0.00 mm 0.00 W/m2
03:19 25.0 °C 21.0 °C 1010.5 hPa Calm     77% 0.00 mm 0.00 W/m2
03:24 25.0 °C 21.0 °C 1010.5 hPa Calm     78% 0.00 mm 0.00 W/m2
03:29 25.0 °C 21.0 °C 1010.5 hPa NW 5 km/h 8 km/h 78% 0.00 mm 0.00 W/m2
03:34 25.0 °C 21.0 °C 1010.5 hPa NW 7 km/h 8 km/h 78% 0.00 mm 0.00 W/m2
03:39 25.0 °C 21.0 °C 1010.5 hPa NW 3 km/h 4 km/h 79% 0.00 mm 0.00 W/m2
03:44 25.0 °C 21.0 °C 1010.5 hPa North 4 km/h 8 km/h 79% 0.00 mm 0.00 W/m2
03:49 25.0 °C 21.0 °C 1010.5 hPa NW 1 km/h 4 km/h 79% 0.00 mm 0.00 W/m2
03:54 25.0 °C 21.0 °C 1010.5 hPa North 1 km/h 4 km/h 79% 0.00 mm 0.00 W/m2
03:59 25.0 °C 21.0 °C 1010.5 hPa Calm     79% 0.00 mm 0.00 W/m2
04:04 25.0 °C 21.0 °C 1010.5 hPa Calm     79% 0.00 mm 0.00 W/m2
04:09 25.0 °C 21.0 °C 1010.5 hPa Calm     79% 0.00 mm 0.00 W/m2
04:14 25.0 °C 21.0 °C 1010.5 hPa North 3 km/h 4 km/h 79% 0.00 mm 0.00 W/m2
04:19 25.0 °C 21.0 °C 1010.5 hPa North 3 km/h 4 km/h 78% 0.00 mm 0.00 W/m2
04:24 25.0 °C 21.0 °C 1010.5 hPa Calm   4 km/h 78% 0.00 mm 0.00 W/m2
04:29 25.0 °C 21.0 °C 1010.5 hPa North 3 km/h 4 km/h 78% 0.00 mm 0.00 W/m2
04:34 25.0 °C 21.0 °C 1010.5 hPa NNW 3 km/h 4 km/h 78% 0.00 mm 0.00 W/m2
04:39 25.0 °C 21.0 °C 1010.5 hPa North 3 km/h 4 km/h 77% 0.00 mm 0.00 W/m2
04:44 25.0 °C 21.0 °C 1010.5 hPa NNW 5 km/h 8 km/h 77% 0.00 mm 0.00 W/m2
04:49 25.0 °C 21.0 °C 1010.5 hPa WNW 1 km/h 4 km/h 77% 0.00 mm 0.00 W/m2
04:54 25.0 °C 21.0 °C 1010.5 hPa North 3 km/h 4 km/h 77% 0.00 mm 0.00 W/m2
04:59 25.0 °C 21.0 °C 1010.5 hPa North 5 km/h 8 km/h 78% 0.00 mm 0.00 W/m2
05:04 25.0 °C 21.0 °C 1010.5 hPa NNW 4 km/h 4 km/h 78% 0.00 mm 0.00 W/m2
05:09 25.0 °C 21.0 °C 1010.8 hPa NNE 4 km/h 4 km/h 78% 0.00 mm 0.00 W/m2
05:14 25.0 °C 21.0 °C 1010.8 hPa North 4 km/h 4 km/h 78% 0.00 mm 0.00 W/m2
05:19 25.0 °C 21.0 °C 1010.5 hPa North 5 km/h 8 km/h 78% 0.00 mm 0.00 W/m2
05:24 25.0 °C 21.0 °C 1010.8 hPa NNE 6 km/h 8 km/h 79% 0.00 mm 0.00 W/m2
05:29 25.0 °C 21.0 °C 1010.8 hPa ENE 1 km/h 4 km/h 78% 0.00 mm 0.00 W/m2
05:34 25.0 °C 21.0 °C 1010.8 hPa NNE 3 km/h 4 km/h 79% 0.00 mm 0.00 W/m2
05:39 25.0 °C 21.0 °C 1010.8 hPa NNE 6 km/h 8 km/h 79% 0.00 mm 0.00 W/m2
05:44 25.0 °C 21.0 °C 1011.2 hPa North 7 km/h 12 km/h 79% 0.00 mm 0.00 W/m2
05:49 25.0 °C 21.0 °C 1011.2 hPa NNE 6 km/h 8 km/h 79% 0.00 mm 0.00 W/m2
05:54 25.0 °C 21.0 °C 1011.2 hPa NNW 3 km/h 4 km/h 79% 0.00 mm 0.00 W/m2
05:59 25.0 °C 21.0 °C 1011.2 hPa North 5 km/h 8 km/h 79% 0.00 mm 0.00 W/m2
06:04 25.0 °C 21.0 °C 1011.2 hPa North 4 km/h 4 km/h 79% 0.00 mm 0.00 W/m2
06:09 25.0 °C 21.0 °C 1011.2 hPa North 4 km/h 4 km/h 79% 0.00 mm 0.00 W/m2
06:14 25.0 °C 21.0 °C 1011.5 hPa North 8 km/h 8 km/h 79% 0.00 mm 1.31 W/m2
06:19 25.0 °C 21.0 °C 1011.5 hPa NNE 3 km/h 4 km/h 79% 0.00 mm 4.60 W/m2
06:24 25.0 °C 21.0 °C 1011.9 hPa North 6 km/h 8 km/h 79% 0.00 mm 8.31 W/m2
06:29 25.0 °C 21.0 °C 1011.9 hPa NNW 4 km/h 8 km/h 78% 0.00 mm 13.44 W/m2
06:34 25.0 °C 21.0 °C 1011.9 hPa NNE 5 km/h 8 km/h 78% 0.00 mm 19.58 W/m2
06:39 25.0 °C 21.0 °C 1011.9 hPa NNW 6 km/h 8 km/h 78% 0.00 mm 23.03 W/m2
06:44 25.0 °C 21.0 °C 1011.9 hPa NW 10 km/h 12 km/h 77% 0.00 mm 28.55 W/m2
06:49 25.0 °C 21.0 °C 1012.2 hPa NW 16 km/h 20 km/h 78% 0.00 mm 30.01 W/m2
06:54 25.0 °C 21.0 °C 1012.2 hPa NW 13 km/h 16 km/h 78% 0.00 mm 35.18 W/m2
06:59 25.0 °C 21.0 °C 1012.2 hPa NW 15 km/h 20 km/h 78% 0.00 mm 36.55 W/m2
07:04 25.0 °C 20.0 °C 1012.2 hPa NW 12 km/h 16 km/h 78% 0.00 mm 60.12 W/m2
07:09 25.0 °C 21.0 °C 1012.2 hPa NNW 9 km/h 12 km/h 78% 0.00 mm 68.44 W/m2
07:14 25.0 °C 21.0 °C 1012.2 hPa NNW 10 km/h 16 km/h 78% 0.00 mm 69.43 W/m2
07:19 25.0 °C 21.0 °C 1012.2 hPa NNW 12 km/h 12 km/h 78% 0.00 mm 83.11 W/m2
07:24 25.0 °C 21.0 °C 1012.2 hPa NNW 5 km/h 8 km/h 77% 0.00 mm 89.84 W/m2
07:29 26.0 °C 21.0 °C 1012.2 hPa NW 6 km/h 8 km/h 76% 0.00 mm 95.78 W/m2
07:34 26.0 °C 21.0 °C 1012.2 hPa NNW 8 km/h 12 km/h 75% 0.00 mm 98.16 W/m2
07:39 26.0 °C 21.0 °C 1012.5 hPa NNW 12 km/h 16 km/h 74% 0.00 mm 110.78 W/m2
07:44 26.0 °C 21.0 °C 1012.2 hPa NW 12 km/h 12 km/h 74% 0.00 mm 122.55 W/m2
07:49 26.0 °C 21.0 °C 1012.2 hPa NW 10 km/h 16 km/h 74% 0.00 mm 132.93 W/m2
07:54 26.0 °C 21.0 °C 1012.5 hPa NNW 13 km/h 16 km/h 73% 0.00 mm 145.48 W/m2
07:59 26.0 °C 21.0 °C 1012.5 hPa NNW 10 km/h 12 km/h 72% 0.00 mm 151.94 W/m2
08:04 27.0 °C 21.0 °C 1012.5 hPa NNW 8 km/h 8 km/h 71% 0.00 mm 165.05 W/m2
08:09 27.0 °C 21.0 °C 1012.5 hPa NNW 8 km/h 12 km/h 71% 0.00 mm 182.40 W/m2
08:14 28.0 °C 21.0 °C 1012.5 hPa NW 8 km/h 12 km/h 70% 0.00 mm 190.55 W/m2
08:19 28.0 °C 21.0 °C 1012.5 hPa NW 9 km/h 12 km/h 70% 0.00 mm 203.98 W/m2
08:24 28.0 °C 21.0 °C 1012.5 hPa North 10 km/h 12 km/h 68% 0.00 mm 205.03 W/m2
08:29 27.0 °C 21.0 °C 1012.5 hPa NNW 10 km/h 12 km/h 67% 0.00 mm 218.41 W/m2
08:34 28.0 °C 21.0 °C 1012.2 hPa North 9 km/h 12 km/h 67% 0.00 mm 226.15 W/m2
08:39 29.0 °C 21.0 °C 1012.2 hPa NE 12 km/h 16 km/h 65% 0.00 mm 235.47 W/m2
08:44 29.0 °C 21.0 °C 1012.2 hPa NNE 8 km/h 12 km/h 64% 0.00 mm 248.73 W/m2
08:49 29.0 °C 21.0 °C 1012.5 hPa NNE 11 km/h 12 km/h 65% 0.00 mm 253.43 W/m2
08:54 28.0 °C 21.0 °C 1012.5 hPa NNW 7 km/h 8 km/h 65% 0.00 mm 260.13 W/m2
08:59 29.0 °C 21.0 °C 1012.5 hPa SSE 6 km/h 8 km/h 64% 0.00 mm 269.70 W/m2
09:04 30.0 °C 21.0 °C 1012.5 hPa NNW 6 km/h 8 km/h 63% 0.00 mm 280.61 W/m2
09:09 30.0 °C 21.0 °C 1012.5 hPa East 6 km/h 8 km/h 61% 0.00 mm 283.69 W/m2
09:14 30.0 °C 21.0 °C 1012.5 hPa NNE 9 km/h 12 km/h 62% 0.00 mm 305.42 W/m2
09:19 30.0 °C 21.0 °C 1012.5 hPa NW 10 km/h 16 km/h 62% 0.00 mm 304.96 W/m2
09:24 29.0 °C 21.0 °C 1012.5 hPa NNW 13 km/h 16 km/h 62% 0.00 mm 327.27 W/m2
09:29 29.0 °C 21.0 °C 1012.5 hPa North 14 km/h 16 km/h 62% 0.00 mm 339.63 W/m2
09:34 29.0 °C 21.0 °C 1012.9 hPa NNE 10 km/h 12 km/h 62% 0.00 mm 340.48 W/m2
09:39 29.0 °C 21.0 °C 1012.5 hPa South 5 km/h 8 km/h 61% 0.00 mm 332.73 W/m2
09:44 29.0 °C 21.0 °C 1012.5 hPa North 10 km/h 12 km/h 62% 0.00 mm 168.23 W/m2
09:49 29.0 °C 21.0 °C 1012.5 hPa NNE 9 km/h 12 km/h 62% 0.00 mm 189.18 W/m2
09:54 29.0 °C 21.0 °C 1012.5 hPa NNE 6 km/h 12 km/h 62% 0.00 mm 177.82 W/m2
09:59 29.0 °C 21.0 °C 1012.5 hPa NNE 13 km/h 16 km/h 62% 0.00 mm 166.52 W/m2
10:04 29.0 °C 21.0 °C 1012.5 hPa NE 10 km/h 16 km/h 63% 0.00 mm 144.25 W/m2
10:09 29.0 °C 21.0 °C 1012.5 hPa NNE 6 km/h 8 km/h 63% 0.00 mm 191.97 W/m2
10:14 29.0 °C 21.0 °C 1012.2 hPa South 5 km/h 8 km/h 62% 0.00 mm 181.69 W/m2
10:19 29.0 °C 21.0 °C 1012.2 hPa NW 10 km/h 12 km/h 63% 0.00 mm 283.28 W/m2
10:24 29.0 °C 22.0 °C 1012.2 hPa NW 10 km/h 12 km/h 64% 0.00 mm 264.31 W/m2
10:29 30.0 °C 22.0 °C 1012.2 hPa NNE 7 km/h 8 km/h 63% 0.00 mm 218.95 W/m2
10:34 30.0 °C 22.0 °C 1012.2 hPa North 9 km/h 12 km/h 62% 0.00 mm 184.23 W/m2
10:39 30.0 °C 22.0 °C 1012.2 hPa NNE 10 km/h 12 km/h 62% 0.00 mm 194.00 W/m2
10:44 30.0 °C 22.0 °C 1012.2 hPa NNW 6 km/h 8 km/h 63% 0.00 mm 194.75 W/m2
10:49 30.0 °C 22.0 °C 1012.2 hPa North 18 km/h 24 km/h 63% 0.00 mm 167.16 W/m2
10:54 30.0 °C 22.0 °C 1012.2 hPa NNE 18 km/h 20 km/h 65% 0.00 mm 158.54 W/m2
10:59 29.0 °C 22.0 °C 1012.2 hPa NNE 12 km/h 16 km/h 66% 0.00 mm 174.23 W/m2
11:04 29.0 °C 22.0 °C 1012.2 hPa North 16 km/h 20 km/h 65% 0.00 mm 175.82 W/m2
11:09 30.0 °C 22.0 °C 1011.9 hPa NE 10 km/h 16 km/h 64% 0.00 mm 343.78 W/m2
11:14 30.0 °C 22.0 °C 1011.9 hPa SE 10 km/h 16 km/h 63% 0.00 mm 350.64 W/m2
11:19 30.0 °C 22.0 °C 1011.5 hPa ESE 5 km/h 8 km/h 64% 0.00 mm 449.16 W/m2
11:24 31.0 °C 22.0 °C 1011.5 hPa South 5 km/h 8 km/h 62% 0.00 mm 462.82 W/m2
11:29 31.0 °C 23.0 °C 1011.2 hPa SSE 5 km/h 8 km/h 60% 0.00 mm 237.16 W/m2
11:34 31.0 °C 22.0 °C 1011.2 hPa SE 10 km/h 12 km/h 60% 0.00 mm 408.82 W/m2
11:39 31.0 °C 22.0 °C 1011.2 hPa SSE 11 km/h 12 km/h 61% 0.00 mm 464.02 W/m2
11:44 31.0 °C 22.0 °C 1011.2 hPa SE 23 km/h 28 km/h 58% 0.00 mm 472.14 W/m2
11:49 32.0 °C 22.0 °C 1010.8 hPa SE 22 km/h 28 km/h 58% 0.00 mm 473.49 W/m2
11:54 32.0 °C 22.0 °C 1010.8 hPa SE 18 km/h 20 km/h 57% 0.00 mm 494.36 W/m2
11:59 32.0 °C 22.0 °C 1010.8 hPa East 13 km/h 20 km/h 57% 0.00 mm 471.33 W/m2
12:04 32.0 °C 22.0 °C 1010.8 hPa SE 13 km/h 16 km/h 56% 0.00 mm 472.90 W/m2
12:09 32.0 °C 22.0 °C 1010.8 hPa NE 10 km/h 12 km/h 57% 0.00 mm 515.69 W/m2
12:14 32.0 °C 22.0 °C 1010.8 hPa North 13 km/h 16 km/h 58% 0.00 mm 524.48 W/m2
12:19 31.0 °C 22.0 °C 1010.8 hPa NNE 15 km/h 20 km/h 59% 0.00 mm 530.37 W/m2
12:24 32.0 °C 22.0 °C 1010.5 hPa NNW 5 km/h 8 km/h 57% 0.00 mm 531.74 W/m2
12:29 32.0 °C 22.0 °C 1010.5 hPa NE 11 km/h 12 km/h 58% 0.00 mm 492.84 W/m2
12:34 31.0 °C 22.0 °C 1010.5 hPa NNE 12 km/h 16 km/h 59% 0.00 mm 478.35 W/m2
12:39 32.0 °C 22.0 °C 1010.5 hPa ENE 5 km/h 8 km/h 58% 0.00 mm 484.96 W/m2
12:44 32.0 °C 22.0 °C 1010.2 hPa NNE 18 km/h 20 km/h 56% 0.00 mm 487.11 W/m2
12:49 32.0 °C 22.0 °C 1010.2 hPa NNE 15 km/h 20 km/h 56% 0.00 mm 483.74 W/m2
12:54 32.0 °C 22.0 °C 1010.2 hPa North 9 km/h 12 km/h 56% 0.00 mm 482.32 W/m2
12:59 33.0 °C 22.0 °C 1010.2 hPa NE 9 km/h 12 km/h 54% 0.00 mm 474.46 W/m2
13:04 33.0 °C 22.0 °C 1010.2 hPa SE 10 km/h 12 km/h 54% 0.00 mm 472.56 W/m2
13:09 33.0 °C 22.0 °C 1009.8 hPa East 5 km/h 8 km/h 54% 0.00 mm 504.61 W/m2
13:14 33.0 °C 22.0 °C 1009.8 hPa NNE 10 km/h 12 km/h 53% 0.00 mm 518.46 W/m2
13:19 34.0 °C 22.0 °C 1009.8 hPa SE 5 km/h 8 km/h 52% 0.00 mm 570.45 W/m2
13:24 34.0 °C 22.0 °C 1009.5 hPa SSE 6 km/h 8 km/h 51% 0.00 mm 572.36 W/m2
13:29 34.0 °C 22.0 °C 1009.5 hPa NNE 17 km/h 20 km/h 55% 0.00 mm 451.86 W/m2
13:34 32.0 °C 22.0 °C 1009.5 hPa NNE 13 km/h 16 km/h 56% 0.00 mm 506.37 W/m2
13:39 33.0 °C 22.0 °C 1009.5 hPa North 19 km/h 24 km/h 56% 0.00 mm 516.18 W/m2
13:44 32.0 °C 23.0 °C 1009.5 hPa North 22 km/h 28 km/h 59% 0.00 mm 305.93 W/m2
13:49 32.0 °C 23.0 °C 1009.5 hPa NNE 19 km/h 28 km/h 60% 0.00 mm 160.62 W/m2
13:54 33.0 °C 23.0 °C 1009.1 hPa ENE 10 km/h 16 km/h 59% 0.00 mm 523.47 W/m2
13:59 33.0 °C 23.0 °C 1009.1 hPa NNE 17 km/h 24 km/h 57% 0.00 mm 542.95 W/m2
14:04 32.0 °C 23.0 °C 1009.1 hPa NNE 21 km/h 24 km/h 58% 0.00 mm 494.82 W/m2
14:09 32.0 °C 23.0 °C 1009.1 hPa NNE 23 km/h 32 km/h 58% 0.00 mm 251.74 W/m2
14:14 31.0 °C 22.0 °C 1009.1 hPa NNE 20 km/h 24 km/h 60% 0.00 mm 268.18 W/m2
14:19 32.0 °C 23.0 °C 1008.8 hPa NNE 18 km/h 20 km/h 60% 0.00 mm 500.69 W/m2
14:24 32.0 °C 23.0 °C 1008.8 hPa NNE 17 km/h 20 km/h 60% 0.00 mm 194.02 W/m2
14:29 32.0 °C 23.0 °C 1009.1 hPa NE 11 km/h 16 km/h 60% 0.00 mm 478.89 W/m2
14:34 32.0 °C 23.0 °C 1008.8 hPa NE 12 km/h 20 km/h 59% 0.00 mm 492.28 W/m2
14:39 32.0 °C 23.0 °C 1008.8 hPa NNE 33 km/h 36 km/h 60% 0.00 mm 459.37 W/m2
14:44 32.0 °C 23.0 °C 1008.8 hPa NE 13 km/h 24 km/h 59% 0.00 mm 482.02 W/m2
14:49 32.0 °C 23.0 °C 1008.8 hPa ESE 11 km/h 16 km/h 58% 0.00 mm 360.72 W/m2
14:54 32.0 °C 23.0 °C 1008.8 hPa ENE 15 km/h 16 km/h 58% 0.00 mm 411.22 W/m2
14:59 33.0 °C 23.0 °C 1008.8 hPa East 10 km/h 12 km/h 58% 0.00 mm 480.26 W/m2
15:04 33.0 °C 23.0 °C 1008.8 hPa NE 13 km/h 16 km/h 59% 0.00 mm 454.01 W/m2
15:09 32.0 °C 23.0 °C 1008.8 hPa NNE 15 km/h 20 km/h 61% 0.00 mm 456.58 W/m2
15:14 31.0 °C 23.0 °C 1008.8 hPa NNE 22 km/h 24 km/h 62% 0.00 mm 222.30 W/m2
15:19 31.0 °C 23.0 °C 1008.8 hPa NNE 17 km/h 20 km/h 62% 0.00 mm 102.71 W/m2
15:24 31.0 °C 23.0 °C 1008.8 hPa NNE 15 km/h 20 km/h 62% 0.00 mm 313.49 W/m2
15:29 31.0 °C 23.0 °C 1008.8 hPa NNE 18 km/h 20 km/h 61% 0.00 mm 385.99 W/m2
15:34 31.0 °C 23.0 °C 1008.8 hPa NW 21 km/h 24 km/h 61% 0.00 mm 384.25 W/m2
15:39 31.0 °C 23.0 °C 1008.8 hPa NNE 12 km/h 16 km/h 61% 0.00 mm 385.38 W/m2
15:44 31.0 °C 23.0 °C 1008.8 hPa NNE 13 km/h 16 km/h 61% 0.00 mm 381.95 W/m2
15:49 31.0 °C 23.0 °C 1008.8 hPa NNE 18 km/h 20 km/h 61% 0.00 mm 362.65 W/m2
15:54 31.0 °C 23.0 °C 1008.8 hPa NNE 23 km/h 28 km/h 61% 0.00 mm 363.97 W/m2
15:59 32.0 °C 23.0 °C 1008.8 hPa NE 12 km/h 16 km/h 60% 0.00 mm 366.83 W/m2
16:04 32.0 °C 23.0 °C 1008.8 hPa NNE 13 km/h 16 km/h 60% 0.00 mm 370.67 W/m2
16:09 31.0 °C 22.0 °C 1009.1 hPa NE 18 km/h 20 km/h 60% 0.00 mm 350.56 W/m2
16:14 31.0 °C 22.0 °C 1009.1 hPa North 19 km/h 24 km/h 61% 0.00 mm 334.61 W/m2
16:19 31.0 °C 22.0 °C 1008.8 hPa NNE 16 km/h 20 km/h 61% 0.00 mm 335.88 W/m2
16:24 32.0 °C 22.0 °C 1008.8 hPa NNE 13 km/h 16 km/h 59% 0.00 mm 335.78 W/m2
16:29 31.0 °C 22.0 °C 1009.1 hPa NNE 18 km/h 20 km/h 59% 0.00 mm 233.95 W/m2
16:34 31.0 °C 21.0 °C 1009.1 hPa NNE 20 km/h 24 km/h 59% 0.00 mm 105.84 W/m2
16:39 31.0 °C 21.0 °C 1009.1 hPa NE 10 km/h 16 km/h 59% 0.00 mm 266.42 W/m2
16:44 31.0 °C 22.0 °C 1009.1 hPa NNE 16 km/h 20 km/h 59% 0.00 mm 266.52 W/m2
16:49 31.0 °C 22.0 °C 1009.1 hPa NNE 19 km/h 20 km/h 60% 0.00 mm 255.75 W/m2
16:54 30.0 °C 22.0 °C 1009.5 hPa NE 17 km/h 20 km/h 60% 0.00 mm 242.71 W/m2
16:59 30.0 °C 22.0 °C 1009.5 hPa NNE 20 km/h 24 km/h 60% 0.00 mm 232.14 W/m2
17:04 30.0 °C 22.0 °C 1009.5 hPa NNE 20 km/h 20 km/h 61% 0.00 mm 218.51 W/m2
17:09 30.0 °C 22.0 °C 1009.1 hPa NNE 13 km/h 16 km/h 61% 0.00 mm 57.72 W/m2
17:14 30.0 °C 22.0 °C 1009.5 hPa NNE 15 km/h 20 km/h 62% 0.00 mm 51.56 W/m2
17:19 30.0 °C 22.0 °C 1009.5 hPa NNE 14 km/h 16 km/h 62% 0.00 mm 47.27 W/m2
17:24 30.0 °C 21.0 °C 1009.5 hPa NNE 19 km/h 20 km/h 62% 0.00 mm 37.60 W/m2
17:29 29.0 °C 21.0 °C 1009.5 hPa NE 17 km/h 24 km/h 63% 0.00 mm 35.03 W/m2
17:34 29.0 °C 21.0 °C 1009.5 hPa NNE 17 km/h 20 km/h 63% 0.00 mm 33.28 W/m2
17:39 29.0 °C 21.0 °C 1009.5 hPa NNE 14 km/h 20 km/h 63% 0.00 mm 30.01 W/m2
17:44 29.0 °C 21.0 °C 1009.8 hPa NE 15 km/h 20 km/h 63% 0.00 mm 25.25 W/m2
17:49 29.0 °C 21.0 °C 1009.8 hPa NNE 17 km/h 24 km/h 62% 0.00 mm 20.17 W/m2
17:54 29.0 °C 21.0 °C 1010.2 hPa NNE 19 km/h 24 km/h 63% 0.00 mm 14.00 W/m2
17:59 29.0 °C 21.0 °C 1010.2 hPa NNE 16 km/h 20 km/h 63% 0.00 mm 8.57 W/m2
18:04 29.0 °C 21.0 °C 1010.2 hPa NNE 10 km/h 12 km/h 63% 0.00 mm 4.71 W/m2
18:09 29.0 °C 21.0 °C 1010.2 hPa NE 16 km/h 20 km/h 64% 0.00 mm 1.09 W/m2
18:14 29.0 °C 21.0 °C 1010.5 hPa NE 16 km/h 20 km/h 65% 0.00 mm 0.00 W/m2
18:19 28.0 °C 21.0 °C 1010.2 hPa East 11 km/h 16 km/h 65% 0.00 mm 0.00 W/m2
18:24 28.0 °C 21.0 °C 1010.5 hPa NNE 13 km/h 16 km/h 66% 0.00 mm 0.00 W/m2
18:29 28.0 °C 21.0 °C 1010.5 hPa ENE 12 km/h 16 km/h 66% 0.00 mm 0.00 W/m2
18:34 28.0 °C 21.0 °C 1010.5 hPa ENE 10 km/h 16 km/h 67% 0.00 mm 0.00 W/m2
18:39 28.0 °C 21.0 °C 1010.5 hPa East 6 km/h 8 km/h 66% 0.00 mm 0.00 W/m2
18:44 28.0 °C 21.0 °C 1010.5 hPa East 5 km/h 8 km/h 66% 0.00 mm 0.00 W/m2
18:49 28.0 °C 21.0 °C 1010.8 hPa SE 5 km/h 8 km/h 65% 0.00 mm 0.00 W/m2
18:54 28.0 °C 21.0 °C 1010.8 hPa NE 10 km/h 12 km/h 65% 0.00 mm 0.00 W/m2
18:59 28.0 °C 21.0 °C 1010.8 hPa NE 5 km/h 8 km/h 65% 0.00 mm 0.00 W/m2
19:04 28.0 °C 21.0 °C 1010.8 hPa NE 6 km/h 8 km/h 65% 0.00 mm 0.00 W/m2
19:09 28.0 °C 21.0 °C 1011.2 hPa NE 8 km/h 12 km/h 65% 0.00 mm 0.00 W/m2
19:14 28.0 °C 21.0 °C 1011.2 hPa North 5 km/h 12 km/h 65% 0.00 mm 0.00 W/m2
19:19 28.0 °C 21.0 °C 1011.2 hPa NNE 9 km/h 12 km/h 65% 0.00 mm 0.00 W/m2
19:24 28.0 °C 21.0 °C 1011.2 hPa NNE 5 km/h 8 km/h 66% 0.00 mm 0.00 W/m2
19:29 28.0 °C 21.0 °C 1011.2 hPa NE 4 km/h 4 km/h 66% 0.00 mm 0.00 W/m2
19:34 28.0 °C 21.0 °C 1011.5 hPa NE 5 km/h 8 km/h 66% 0.00 mm 0.00 W/m2
19:39 28.0 °C 21.0 °C 1011.5 hPa NNE 3 km/h 4 km/h 66% 0.00 mm 0.00 W/m2
19:44 28.0 °C 21.0 °C 1011.5 hPa South 1 km/h 4 km/h 66% 0.00 mm 0.00 W/m2
19:49 28.0 °C 21.0 °C 1011.5 hPa East 5 km/h 8 km/h 67% 0.00 mm 0.00 W/m2
19:54 28.0 °C 21.0 °C 1011.9 hPa East 4 km/h 8 km/h 66% 0.00 mm 0.00 W/m2
19:59 28.0 °C 20.0 °C 1011.9 hPa SE 6 km/h 8 km/h 64% 0.00 mm 0.00 W/m2
20:04 28.0 °C 21.0 °C 1011.9 hPa Calm     65% 0.00 mm 0.00 W/m2
20:09 28.0 °C 21.0 °C 1011.9 hPa ENE 5 km/h 8 km/h 65% 0.00 mm 0.00 W/m2
20:14 28.0 °C 21.0 °C 1011.9 hPa North 10 km/h 12 km/h 65% 0.00 mm 0.00 W/m2
20:19 28.0 °C 21.0 °C 1011.9 hPa North 11 km/h 12 km/h 65% 0.00 mm 0.00 W/m2
20:24 28.0 °C 21.0 °C 1011.9 hPa NNE 8 km/h 8 km/h 66% 0.00 mm 0.00 W/m2
20:29 28.0 °C 21.0 °C 1011.9 hPa North 6 km/h 8 km/h 66% 0.00 mm 0.00 W/m2
20:34 28.0 °C 21.0 °C 1011.9 hPa NE 4 km/h 4 km/h 66% 0.00 mm 0.00 W/m2
20:39 28.0 °C 21.0 °C 1012.2 hPa NNE 6 km/h 8 km/h 66% 0.00 mm 0.00 W/m2
20:44 28.0 °C 21.0 °C 1012.2 hPa NE 5 km/h 8 km/h 66% 0.00 mm 0.00 W/m2
20:49 28.0 °C 21.0 °C 1012.2 hPa East 4 km/h 8 km/h 66% 0.00 mm 0.00 W/m2
20:54 28.0 °C 21.0 °C 1012.2 hPa NE 1 km/h 4 km/h 66% 0.00 mm 0.00 W/m2
20:59 28.0 °C 21.0 °C 1012.2 hPa NE 4 km/h 8 km/h 67% 0.00 mm 0.00 W/m2
21:04 28.0 °C 21.0 °C 1012.2 hPa NE 10 km/h 12 km/h 67% 0.00 mm 0.00 W/m2
21:09 28.0 °C 21.0 °C 1012.2 hPa NNE 11 km/h 12 km/h 67% 0.00 mm 0.00 W/m2
21:14 28.0 °C 21.0 °C 1012.2 hPa ENE 3 km/h 4 km/h 67% 0.00 mm 0.00 W/m2
21:19 28.0 °C 21.0 °C 1012.2 hPa ENE 5 km/h 8 km/h 67% 0.00 mm 0.00 W/m2
21:24 28.0 °C 21.0 °C 1012.2 hPa NNE 8 km/h 8 km/h 67% 0.00 mm 0.00 W/m2
21:29 28.0 °C 21.0 °C 1012.2 hPa NNE 7 km/h 8 km/h 67% 0.00 mm 0.00 W/m2
21:34 28.0 °C 21.0 °C 1012.2 hPa NE 7 km/h 12 km/h 68% 0.00 mm 0.00 W/m2
21:39 28.0 °C 21.0 °C 1012.2 hPa NNW 5 km/h 8 km/h 68% 0.00 mm 0.00 W/m2
21:44 27.0 °C 21.0 °C 1012.2 hPa NNW 3 km/h 4 km/h 68% 0.00 mm 0.00 W/m2
21:49 28.0 °C 21.0 °C 1012.2 hPa Calm     68% 0.00 mm 0.00 W/m2
21:54 28.0 °C 21.0 °C 1012.2 hPa Calm     68% 0.00 mm 0.00 W/m2
21:59 28.0 °C 21.0 °C 1012.2 hPa Calm     67% 0.00 mm 0.00 W/m2
22:04 28.0 °C 21.0 °C 1012.2 hPa Calm     68% 0.00 mm 0.00 W/m2
22:09 28.0 °C 21.0 °C 1012.5 hPa Calm     67% 0.00 mm 0.00 W/m2
22:14 28.0 °C 21.0 °C 1012.5 hPa Calm     67% 0.00 mm 0.00 W/m2
22:19 28.0 °C 21.0 °C 1012.2 hPa Calm     67% 0.00 mm 0.00 W/m2
22:24 28.0 °C 21.0 °C 1012.5 hPa Calm     67% 0.00 mm 0.00 W/m2
22:29 28.0 °C 21.0 °C 1012.2 hPa North 4 km/h 8 km/h 67% 0.00 mm 0.00 W/m2
22:34 28.0 °C 21.0 °C 1012.5 hPa North 5 km/h 8 km/h 68% 0.00 mm 0.00 W/m2
22:39 28.0 °C 21.0 °C 1012.5 hPa North 5 km/h 8 km/h 68% 0.00 mm 0.00 W/m2
22:44 28.0 °C 21.0 °C 1012.5 hPa North 7 km/h 8 km/h 68% 0.00 mm 0.00 W/m2
22:49 28.0 °C 21.0 °C 1012.2 hPa NNW 5 km/h 8 km/h 68% 0.00 mm 0.00 W/m2
22:54 27.0 °C 21.0 °C 1012.2 hPa NNW 7 km/h 8 km/h 68% 0.00 mm 0.00 W/m2
22:59 27.0 °C 21.0 °C 1012.2 hPa NNW 9 km/h 12 km/h 68% 0.00 mm 0.00 W/m2
23:04 27.0 °C 21.0 °C 1012.2 hPa NNE 8 km/h 8 km/h 68% 0.00 mm 0.00 W/m2
23:09 27.0 °C 21.0 °C 1012.2 hPa North 9 km/h 12 km/h 68% 0.00 mm 0.00 W/m2
23:14 27.0 °C 21.0 °C 1012.2 hPa North 5 km/h 8 km/h 68% 0.00 mm 0.00 W/m2
23:19 27.0 °C 21.0 °C 1012.2 hPa North 5 km/h 8 km/h 69% 0.00 mm 0.00 W/m2
23:24 27.0 °C 21.0 °C 1012.2 hPa North 5 km/h 8 km/h 69% 0.00 mm 0.00 W/m2
23:29 27.0 °C 21.0 °C 1012.2 hPa Calm     69% 0.00 mm 0.00 W/m2
23:34 27.0 °C 21.0 °C 1012.2 hPa Calm     68% 0.00 mm 0.00 W/m2
23:39 27.0 °C 21.0 °C 1012.2 hPa Calm     69% 0.00 mm 0.00 W/m2
23:44 28.0 °C 21.0 °C 1012.2 hPa Calm     69% 0.00 mm 0.00 W/m2
23:49 27.0 °C 21.0 °C 1011.9 hPa Calm     68% 0.00 mm 0.00 W/m2
23:54 27.0 °C 21.0 °C 1011.9 hPa Calm   4 km/h 68% 0.00 mm 0.00 W/m2
23:59 27.0 °C 21.0 °C 1011.9 hPa Calm     68% 0.00 mm 0.00 W/m2
PIMOHWEATHER Philippines
Compliments of Weather Underground - 2 mb